Location: Unspecified
(52.4292°N, 19.3359°E)
Time: 22:45:47
(UTC+02:00)

SR - Pass Details

Date: 30 May 2024
Orbit: 580 x 858 km, 66.7° (Epoch: 12 June)

Event Time Altitude Azimuth Distance (km) Brightness Sun altitude
Rises 19:00:03 0° 265° (W) 3,107 ? 14.3°
Reaches altitude 10° 19:02:55 10° 280° (W) 2,136 ? 13.9°
Maximum altitude 19:06:43 23° 332° (NNW) 1,409 ? 13.4°
Drops below altitude 10° 19:10:20 10° 24° (NNE) 2,014 ? 12.8°
Sets 19:12:58 0° 40° (NE) 2,885 ? 12.5°
